Change the Weather History Date:

Wednesday, October 17, 2012

  Actual Average Record
Temperature  
Mean Temperature 44 °F 47 °F  
Max Temperature 53 °F 61 °F 84 °F (1958)
Min Temperature 35 °F 34 °F 20 °F (1948)
Degree Days  
Heating Degree Days 21 18  
Month to date heating degree days 230 255  
Since 1 July heating degree days 322 525  
Cooling Degree Days 0 0  
Month to date cooling degree days 0 0  
Year to date cooling degree days 546 365  
Moisture  
Dew Point 25 °F    
Average Humidity 47    
Maximum Humidity 64    
Minimum Humidity 30    
Precipitation  
Precipitation 0.00 in 0.03 in 0.34 in (1969)
Month to date precipitation 0.31 0.40  
Year to date precipitation 7.11 7.71  
Sea Level Pressure  
Sea Level Pressure 30.18 in    
Wind  
Wind Speed 15 mph (WSW)    
Max Wind Speed 23 mph    
Max Gust Speed 30 mph    
Visibility 10 miles    
Events      
T = Trace of Precipitation, MM = Missing Value Source: NWS Daily Summary

Daily Weather History Graph

Daily Weather History Graph

Search for Another Location

Airport or City:

Trip Planner

Search our weather history database for the weather conditions in past years. The results will help you decide how hot, cold, wet, or windy it might be!

Date:

Astronomy

Oct. 17, 2012 Rise Set
Actual Time 7:51 AM MDT 6:48 PM MDT
Civil Twilight 7:22 AM MDT 7:17 PM MDT
Nautical Twilight 6:49 AM MDT 7:49 PM MDT
Astronomical Twilight 6:17 AM MDT 8:22 PM MDT
Moon 10:34 AM MDT (10/17) 8:24 PM MDT (10/17)
Length of Visible Light 11h 54m
Length of Day
10h 57m
Waxing Crescent, 7% of the Moon is Illuminated
Oct 17
Waxing Crescent
Oct 21
First Quarter
Oct 29
Full
Nov 6
Last Quarter
Nov 13
New

Hourly Weather History & Observations

Time (MDT) Temp. Windchill Dew Point Humidity Pressure Visibility Wind Dir Wind Speed Gust Speed Precip Events Conditions
12:53 AM 41.0 °F 31.9 °F 26.1 °F 55% 30.06 in 10.0 mi West 19.6 mph 27.6 mph N/A   Clear
1:53 AM 39.9 °F 30.8 °F 25.0 °F 55% 30.08 in 10.0 mi West 18.4 mph 23.0 mph N/A   Clear
2:53 AM 39.9 °F 31.4 °F 24.1 °F 53% 30.10 in 10.0 mi West 16.1 mph 24.2 mph N/A   Clear
3:53 AM 39.0 °F 30.6 °F 24.1 °F 55% 30.11 in 10.0 mi West 15.0 mph 26.5 mph N/A   Clear
4:53 AM 37.9 °F 29.6 °F 24.1 °F 57% 30.14 in 10.0 mi WSW 13.8 mph - N/A   Clear
5:53 AM 36.0 °F 26.7 °F 24.1 °F 62% 30.16 in 10.0 mi WSW 15.0 mph - N/A   Clear
6:53 AM 36.0 °F 27.1 °F 25.0 °F 64% 30.17 in 10.0 mi WSW 13.8 mph 20.7 mph N/A   Clear
7:53 AM 36.0 °F 26.0 °F 25.0 °F 64% 30.19 in 10.0 mi WSW 17.3 mph 25.3 mph N/A   Clear
8:53 AM 37.0 °F 29.8 °F 26.1 °F 65% 30.21 in 10.0 mi SW 10.4 mph - N/A   Clear
9:53 AM 43.0 °F 34.5 °F 27.0 °F 53% 30.22 in 10.0 mi WSW 19.6 mph 24.2 mph N/A   Clear
10:53 AM 45.0 °F 36.9 °F 28.0 °F 52% 30.22 in 10.0 mi WSW 20.7 mph 27.6 mph N/A   Clear
11:53 AM 46.9 °F - 28.0 °F 48% 30.22 in 10.0 mi West 21.9 mph 27.6 mph N/A   Clear
12:53 PM 48.9 °F - 27.0 °F 43% 30.21 in 10.0 mi WSW 17.3 mph 26.5 mph N/A   Clear
1:53 PM 50.0 °F - 26.1 °F 39% 30.20 in 10.0 mi West 19.6 mph 25.3 mph N/A   Clear
2:53 PM 52.0 °F - 25.0 °F 35% 30.18 in 10.0 mi West 18.4 mph 25.3 mph N/A   Clear
3:53 PM 52.0 °F - 25.0 °F 35% 30.17 in 10.0 mi West 16.1 mph 26.5 mph N/A   Clear
4:53 PM 52.0 °F - 21.9 °F 31% 30.17 in 10.0 mi West 15.0 mph 24.2 mph N/A   Clear
5:53 PM 50.0 °F - 21.0 °F 32% 30.17 in 10.0 mi West 10.4 mph 20.7 mph N/A   Clear
6:53 PM 45.0 °F 40.6 °F 23.0 °F 42% 30.19 in 10.0 mi SW 8.1 mph - N/A   Clear
7:53 PM 45.0 °F 38.5 °F 26.1 °F 48% 30.19 in 10.0 mi SW 13.8 mph - N/A   Clear
8:53 PM 46.0 °F 39.9 °F 23.0 °F 40% 30.19 in 10.0 mi WSW 13.8 mph 25.3 mph N/A   Clear
9:53 PM 46.0 °F 38.5 °F 21.9 °F 39% 30.19 in 10.0 mi WSW 19.6 mph 25.3 mph N/A   Clear
10:53 PM 44.1 °F 38.6 °F 24.1 °F 45% 30.22 in 10.0 mi SW 10.4 mph 18.4 mph N/A   Clear
11:53 PM 37.9 °F 32.7 °F 25.0 °F 60% 30.24 in 10.0 mi SW 6.9 mph - N/A   Clear